[[{"header":{"parameterUnit":"m.s-1","parameterCategory":1,"la1":30.2991,"la2":30.254,"lo1":-89.0895,"lo2":-89.0444,"dy":0.0017,"dx":0.0017,"nx":28,"ny":28,"refTime":"2024-08-26T03:00:00:Z","depth":0,"parameterNumber":2,"parameterNumberName":"U-component_of_WINDS"},"data":[0,0,0,0,0,0,0,0,0,0,0,0,0,0,0,0,0,0,0,0,0,0,0,0,0,0,0,0,0,0,0,0,0,0,0,0,0,0,0,0,0,0,0,0,0,0,0,0,0,0,0,0,0,0,0,0,0,0,-4.0073,-4.0074,0,-4.0185,-4.0187,-4.0188,-4.0199,-4.0198,-4.0197,-4.0196,-4.0311,-4.0315,-4.0319,0,0,0,0,0,0,0,0,0,0,0,0,0,-3.9868,-3.9872,-4.0073,-4.0074,-4.0075,-4.0185,-4.0187,-4.0188,-4.02,-4.0198,-4.0197,-4.0195,-4.0309,-4.0314,-4.0319,0,0,0,0,0,0,0,0,0,0,0,0,0,-3.9967,-3.9873,-4.0072,-4.0094,-4.0097,-4.0185,-4.0187,-4.0189,-4.02,-4.0198,-4.0196,-4.0195,-4.0308,-4.0314,-4.032,-4.0393,0,0,-4.0339,-4.0341,0,0,0,0,0,0,0,0,-3.9961,-3.9974,-4.009,-4.0093,-4.0097,-4.0177,-4.0157,-4.0257,-4.02,-4.0161,-4.0196,-4.0194,-4.0267,-4.0277,-4.0302,-4.0398,-4.0403,-4.0339,-4.0343,-4.0346,-4.0347,0,0,0,0,0,0,0,-3.9954,-3.9969,-4.0117,-4.0091,-4.0096,-4.0099,-4.0111,-4.0176,-4.0223,-4.0164,-4.0165,-4.0179,-4.0269,-4.0296,-4.0304,-4.0405,-4.0339,-4.0345,-4.0348,-4.0351,-4.057,-4.0572,0,0,0,0,0,0,-3.9943,-3.9963,-4.0114,-4.0121,-4.0023,-4.0104,-4.0118,-4.0153,-4.0222,-4.0231,-4.018,-4.0179,-4.0286,-4.0297,-4.0309,-4.04,-4.0346,-4.0351,-4.0355,-4.0567,-4.057,-4.0572,0,0,0,0,0,0,-3.9939,-3.9956,-4.0109,-4.0043,-4.0062,-4.0109,-4.0149,-4.0156,-4.0183,-4.0234,-4.0242,-4.0199,-4.0285,-4.03,-4.0372,-4.0404,-4.0354,-4.036,-4.0565,-4.0568,-4.0571,-4.0582,0,0,0,0,0,0,-3.9933,-3.9955,-3.9982,-4.0043,-4.0066,-4.0171,-4.0151,-4.0159,-4.0193,-4.0193,-4.0253,-4.0262,-4.0285,-4.0363,-4.0379,-4.0412,-4.0365,-4.0562,-4.0566,-4.057,-4.0579,-4.0586,-4.0591,0,0,0,0,0,-3.9925,-3.998,-3.9984,-4.0002,-4.0101,-4.0172,-4.0185,-4.0211,-4.0196,-4.0224,-4.0258,-4.026,-4.0398,-4.037,-4.0388,-4.0423,-4.056,-4.0565,-4.057,-4.0577,-4.0584,-4.0591,0,0,0,0,0,0,-3.9921,-3.9989,-3.9993,-4.0069,-4.0115,-4.0174,-4.0211,-4.0218,-4.0268,-4.0266,-4.0295,-4.0309,-4.038,-4.0409,-4.0377,-4.0499,-4.0478,-4.0486,-4.0477,-4.0485,-4.049,-4.0482,-4.037,0,0,0,0,0,-3.9929,-3.9982,-4.0038,-4.0099,-4.0122,-4.0163,-4.0195,-4.0211,-4.0259,-4.0278,-4.0317,-4.0364,-4.0418,-4.0453,-4.0506,-4.0584,-4.0598,-4.0617,-4.0623,-4.0628,-4.0634,-4.068,-4.0689,-4.0588,-4.0588,-4.0588,0,0,-3.9946,-3.999,-4.002,-4.01,-4.0137,-4.0191,-4.0179,-4.0236,-4.0276,-4.0287,-4.0358,-4.0388,-4.0443,-4.0519,-4.0555,-4.0545,-4.0666,-4.0634,-4.0637,-4.0641,-4.0686,-4.0695,-4.0704,-4.0591,-4.059,-4.059,0,0,-4.0005,-4.0042,-4.0099,-4.0137,-4.0195,-4.0222,-4.0235,-4.0294,-4.0315,-4.0387,-4.0397,-4.0446,-4.0538,-4.0578,-4.0609,-4.0686,-4.0691,-4.0703,-4.0732,-4.0776,-4.0784,-4.0791,-4.082,-4.083,-4.0709,-4.0709,-4.0709,0,-4.0018,-4.0099,-4.0127,-4.0184,-4.022,-4.0234,-4.0292,-4.0327,-4.0399,-4.0423,-4.0412,-4.053,-4.0568,-4.0654,-4.0673,-4.0698,-4.0716,-4.0695,-4.0781,-4.0788,-4.0796,-4.0823,-4.0833,-4.0711,-4.071,-4.071,-4.071,0,-4.0114,-4.0171,-4.0209,-4.0279,-4.0319,-4.0376,-4.0413,-4.045,-4.0464,-4.0492,-4.0567,-4.0613,-4.0676,-4.0698,-4.0711,-4.0787,-4.078,-4.0775,-4.0754,-4.0806,-4.0832,-4.0843,-4.0712,-4.0712,-4.0711,-4.0711,0,0,-4.017,-4.0257,-4.0271,-4.0304,-4.037,-4.0414,-4.0473,-4.0536,-4.0567,-4.0617,-4.0668,-4.0747,-4.0744,-4.078,-4.0798,-4.0837,-4.0896,-4.0827,-4.0829,-4.0839,-4.0985,-4.0988,-4.1,-4.09,-4.0902,-4.0904,-4.0981,0,-4.0237,-4.0342,-4.037,-4.046,-4.0513,-4.0528,-4.058,-4.0626,-4.0655,-4.0705,-4.0737,-4.0794,-4.0784,-4.0806,-4.0845,-4.088,-4.0926,-4.0875,-4.0948,-4.095,-4.0934,-4.1014,-4.1017,-4.1087,-4.0991,-4.0993,-4.0994,0,-4.0327,-4.038,-4.0475,-4.0537,-4.056,-4.0606,-4.0667,-4.0714,-4.0768,-4.0787,-4.0829,-4.0844,-4.0907,-4.0884,-4.0972,-4.0937,-4.0969,-4.0991,-4.0995,-4.1002,-4.0975,-4.1024,-4.111,-4.112,-4.101,-4.1009,-4.1008,0,-4.036,-4.0455,-4.0525,-4.0553,-4.0625,-4.0658,-4.0689,-4.0741,-4.0778,-4.0832,-4.0856,-4.0916,-4.0949,-4.0996,-4.1027,-4.1007,-4.1113,-4.1092,-4.1131,-4.113,-4.1152,-4.115,-4.1245,-4.1172,-4.1172,-4.1172,-4.1172,0,-4.0431,-4.0488,-4.0541,-4.0584,-4.065,-4.0682,-4.0747,-4.0779,-4.0826,-4.0876,-4.0893,-4.094,-4.0978,-4.1031,-4.1056,-4.1126,-4.1141,-4.1158,-4.1164,-4.1157,-4.1154,-4.1177,-4.1173,-4.1175,-4.1174,-4.1174,-4.1173,0,-4.0478,-4.0515,-4.0592,-4.0656,-4.0673,-4.0719,-4.0774,-4.0817,-4.0847,-4.0911,-4.0928,-4.0976,-4.1039,-4.1075,-4.1154,-4.1171,-4.1249,-4.1253,-4.1231,-4.1234,-4.1271,-4.1267,-4.1383,-4.1401,-4.1316,-4.1317,-4.1318,0,-4.052,-4.0565,-4.0634,-4.067,-4.0702,-4.0759,-4.0797,-4.0831,-4.087,-4.0937,-4.0972,-4.1036,-4.1089,-4.1189,-4.1231,-4.1293,-4.1298,-4.1335,-4.1307,-4.1299,-4.1299,-4.1296,-4.1302,-4.1339,-4.134,-4.134,-4.1341,0,-4.0592,-4.0609,-4.0663,-4.0725,-4.0771,-4.0821,-4.0871,-4.0899,-4.0942,-4.0985,-4.105,-4.1091,-4.1173,-4.1237,-4.1303,-4.1336,-4.1346,-4.135,-4.1362,-4.1355,-4.134,-4.1349,-4.1244,-4.1346,-4.1346,-4.1346,-4.1345,-4.1345,-4.0638,-4.068,-4.0736,-4.0797,-4.0838,-4.0885,-4.0929,-4.0967,-4.1021,-4.1091,-4.1108,-4.1177,-4.1232,-4.1321,-4.1357,-4.1411,-4.1405,-4.1423,-4.1427,-4.1431,-4.1433,-4.1332,-4.1423,-4.1423,-4.1423,-4.1423,-4.1423,0,-4.0712,-4.0749,-4.0805,-4.0875,-4.0923,-4.093,-4.0986,-4.1026,-4.1087,-4.1137,-4.119,-4.1266,-4.1329,-4.1377,-4.1442,-4.1477,-4.1483,-4.1493,-4.149,-4.1498,-4.1434,-4.1417,-4.1487,-4.1487,-4.1486,-4.1486,-4.1486,-4.1486,-4.0755,-4.0827,-4.0851,-4.0944,-4.0981,-4.1049,-4.1081,-4.1125,-4.1166,-4.125,-4.1303,-4.1334,-4.1385,-4.1454,-4.1512,-4.1525,-4.1548,-4.1557,-4.157,-4.1509,-4.1502,-4.1496,-4.148,-4.1562,-4.1562,-4.163,-4.1631,-4.1631]},{"header":{"parameterUnit":"m.s-1","parameterCategory":1,"la1":30.2991,"la2":30.254,"lo1":-89.0895,"lo2":-89.0444,"dy":0.0017,"dx":0.0017,"nx":28,"ny":28,"refTime":"2024-08-26T03:00:00:Z","depth":0,"parameterNumber":3,"parameterNumberName":"V-component_of_WINDS"},"data":[0,0,0,0,0,0,0,0,0,0,0,0,0,0,0,0,0,0,0,0,0,0,0,0,0,0,0,0,0,0,0,0,0,0,0,0,0,0,0,0,0,0,0,0,0,0,0,0,0,0,0,0,0,0,0,0,0,0,-2.3807,-2.3805,0,-2.3651,-2.365,-2.3648,-2.3499,-2.3498,-2.3496,-2.3494,-2.3332,-2.3329,-2.3327,0,0,0,0,0,0,0,0,0,0,0,0,0,-2.3972,-2.397,-2.3807,-2.3805,-2.3803,-2.3652,-2.365,-2.3647,-2.35,-2.3497,-2.3495,-2.3493,-2.3332,-2.3329,-2.3326,0,0,0,0,0,0,0,0,0,0,0,0,0,-2.3867,-2.3969,-2.3807,-2.3711,-2.3701,-2.3652,-2.3649,-2.3647,-2.35,-2.3497,-2.3495,-2.3492,-2.3333,-2.333,-2.3326,-2.3358,0,0,-2.3314,-2.3312,0,0,0,0,0,0,0,0,-2.3873,-2.3861,-2.3727,-2.3718,-2.3706,-2.3592,-2.3648,-2.355,-2.3501,-2.3576,-2.3494,-2.3491,-2.342,-2.3409,-2.3386,-2.3351,-2.3344,-2.3314,-2.3311,-2.331,-2.3309,0,0,0,0,0,0,0,-2.3881,-2.3867,-2.3745,-2.3726,-2.3713,-2.3675,-2.3657,-2.3629,-2.3516,-2.357,-2.3558,-2.3542,-2.3414,-2.339,-2.3381,-2.3341,-2.3314,-2.331,-2.3308,-2.3307,-2.3324,-2.3326,0,0,0,0,0,0,-2.3903,-2.3874,-2.375,-2.3741,-2.3785,-2.3674,-2.3654,-2.3631,-2.3516,-2.3496,-2.3545,-2.3536,-2.3398,-2.3386,-2.3375,-2.3405,-2.331,-2.3306,-2.3304,-2.3321,-2.3324,-2.3327,0,0,0,0,0,0,-2.3907,-2.3893,-2.3756,-2.3804,-2.3784,-2.3674,-2.365,-2.363,-2.3606,-2.3497,-2.3476,-2.3542,-2.3395,-2.338,-2.3363,-2.3397,-2.3304,-2.3301,-2.3318,-2.3322,-2.3326,-2.3466,0,0,0,0,0,0,-2.3913,-2.3896,-2.3908,-2.3806,-2.3782,-2.375,-2.3652,-2.3629,-2.36,-2.3587,-2.3488,-2.3469,-2.3392,-2.337,-2.336,-2.339,-2.3298,-2.3314,-2.3319,-2.3324,-2.3458,-2.3475,-2.3489,0,0,0,0,0,-2.3919,-2.3953,-2.391,-2.3895,-2.3795,-2.3752,-2.3738,-2.3649,-2.3603,-2.3614,-2.3544,-2.3472,-2.3395,-2.337,-2.3357,-2.3387,-2.3311,-2.3318,-2.3324,-2.3451,-2.3472,-2.3489,0,0,0,0,0,0,-2.4062,-2.3938,-2.3888,-2.3891,-2.3833,-2.3727,-2.3738,-2.3674,-2.3627,-2.3617,-2.3507,-2.3486,-2.3482,-2.3432,-2.3406,-2.3411,-2.3343,-2.3347,-2.3445,-2.3463,-2.3478,-2.3491,-2.3295,0,0,0,0,0,-2.4094,-2.407,-2.3963,-2.3975,-2.3949,-2.3849,-2.3827,-2.3763,-2.3699,-2.3673,-2.3602,-2.3541,-2.3502,-2.3479,-2.3438,-2.345,-2.3426,-2.3464,-2.3479,-2.3492,-2.3497,-2.3499,-2.3515,-2.3348,-2.3348,-2.3347,0,0,-2.416,-2.4089,-2.4081,-2.4002,-2.395,-2.3927,-2.3829,-2.3809,-2.379,-2.3669,-2.365,-2.3595,-2.352,-2.3518,-2.3513,-2.3476,-2.3538,-2.35,-2.3512,-2.3509,-2.3507,-2.3523,-2.3537,-2.3352,-2.3351,-2.335,0,0,-2.4268,-2.4212,-2.4216,-2.4166,-2.4089,-2.4021,-2.4023,-2.3926,-2.3885,-2.3864,-2.3773,-2.3748,-2.3684,-2.3634,-2.3601,-2.3689,-2.3621,-2.3678,-2.3759,-2.3762,-2.3775,-2.3786,-2.3818,-2.383,-2.3683,-2.3683,-2.3683,0,-2.4359,-2.4322,-2.4226,-2.4212,-2.418,-2.407,-2.4073,-2.4028,-2.3941,-2.3921,-2.388,-2.3798,-2.3739,-2.3724,-2.3745,-2.3721,-2.3718,-2.3689,-2.3781,-2.3791,-2.38,-2.3829,-2.3841,-2.3691,-2.369,-2.3689,-2.3688,0,-2.4438,-2.4413,-2.4426,-2.4346,-2.4314,-2.4309,-2.4212,-2.4191,-2.413,-2.4067,-2.4046,-2.3971,-2.3913,-2.3904,-2.3844,-2.3879,-2.3859,-2.3802,-2.3731,-2.3825,-2.3851,-2.3861,-2.3702,-2.3699,-2.3697,-2.3695,0,0,-2.4633,-2.45,-2.4506,-2.4468,-2.4374,-2.4352,-2.4341,-2.4285,-2.4269,-2.4212,-2.4199,-2.4148,-2.4094,-2.4056,-2.3988,-2.3991,-2.4065,-2.3932,-2.3929,-2.396,-2.41,-2.4145,-2.4159,-2.4019,-2.4021,-2.4022,-2.4106,0,-2.4726,-2.4701,-2.4614,-2.4614,-2.459,-2.4485,-2.4474,-2.4415,-2.4355,-2.4324,-2.4257,-2.4223,-2.4154,-2.413,-2.4128,-2.4057,-2.4092,-2.4049,-2.4006,-2.4005,-2.403,-2.4172,-2.422,-2.4303,-2.4115,-2.4117,-2.4118,0,-2.4831,-2.4782,-2.4781,-2.4687,-2.4674,-2.4667,-2.4608,-2.458,-2.4509,-2.4465,-2.4423,-2.4348,-2.4328,-2.4262,-2.4233,-2.4207,-2.4183,-2.4145,-2.4146,-2.414,-2.4069,-2.417,-2.4327,-2.434,-2.4133,-2.4132,-2.413,0,-2.4975,-2.4908,-2.4899,-2.4869,-2.4759,-2.4757,-2.4711,-2.4637,-2.4609,-2.4557,-2.4537,-2.4483,-2.4454,-2.4413,-2.4324,-2.4284,-2.4306,-2.4232,-2.4268,-2.4271,-2.4279,-2.428,-2.4435,-2.4262,-2.4262,-2.4262,-2.4261,0,-2.5088,-2.5092,-2.4962,-2.4956,-2.4956,-2.4856,-2.4858,-2.4801,-2.4737,-2.4717,-2.4621,-2.4605,-2.4489,-2.4458,-2.4389,-2.4376,-2.4363,-2.4326,-2.4308,-2.4335,-2.434,-2.4319,-2.4312,-2.4265,-2.4264,-2.4264,-2.4263,0,-2.525,-2.5163,-2.5146,-2.5043,-2.5017,-2.5022,-2.4933,-2.4923,-2.4857,-2.4833,-2.4821,-2.4718,-2.4677,-2.4584,-2.4518,-2.4471,-2.4475,-2.4441,-2.45,-2.4489,-2.4531,-2.4529,-2.4679,-2.4693,-2.4512,-2.4513,-2.4515,0,-2.5329,-2.5329,-2.5227,-2.5207,-2.5165,-2.5135,-2.5106,-2.5006,-2.4979,-2.4898,-2.4898,-2.4849,-2.4805,-2.4744,-2.4662,-2.4611,-2.4575,-2.4631,-2.4567,-2.4595,-2.4577,-2.4579,-2.4578,-2.4647,-2.4649,-2.4651,-2.4653,0,-2.5478,-2.5435,-2.5397,-2.5345,-2.5313,-2.5266,-2.5213,-2.5203,-2.5089,-2.5064,-2.5021,-2.4988,-2.492,-2.4873,-2.4809,-2.4759,-2.4688,-2.4673,-2.4679,-2.4708,-2.4743,-2.4725,-2.454,-2.4671,-2.4669,-2.4668,-2.4667,-2.4666,-2.5601,-2.5596,-2.5524,-2.5485,-2.5435,-2.5388,-2.5374,-2.5306,-2.5269,-2.5208,-2.515,-2.5113,-2.504,-2.4947,-2.4902,-2.4871,-2.4835,-2.4843,-2.4845,-2.4849,-2.4862,-2.4747,-2.4859,-2.4858,-2.4857,-2.4857,-2.4856,0,-2.5746,-2.5694,-2.5659,-2.559,-2.5559,-2.5494,-2.5432,-2.541,-2.538,-2.5319,-2.5278,-2.5229,-2.5182,-2.5096,-2.5042,-2.5033,-2.4999,-2.5022,-2.5023,-2.5012,-2.4897,-2.4898,-2.5051,-2.5051,-2.5051,-2.5051,-2.5051,-2.5051,-2.5818,-2.5807,-2.5756,-2.5718,-2.5665,-2.563,-2.56,-2.5556,-2.5507,-2.5457,-2.5418,-2.5362,-2.5291,-2.523,-2.5184,-2.516,-2.5145,-2.5179,-2.5145,-2.5039,-2.502,-2.5003,-2.5003,-2.5177,-2.5177,-2.5263,-2.5263,-2.5264]}]]